Location: Cabeza de los Veneras
(40.2000°N, 5.2000°W)
Time: 10:59:50
(UTC+00:00)

Tiangong - Pass Details

Date: 18 April 2024
Orbit: 371 x 375 km, 41.5° (Epoch: 22 May)

Event Time Altitude Azimuth Distance (km) Brightness Sun altitude
Rises 19:37:38 0° 231° (SW) 2,252 2.2 -7.1°
Reaches altitude 10° 19:39:49 10° 221° (SW) 1,397 1.0 -7.5°
Maximum altitude 19:42:42 33° 155° (SSE) 659 -1.3 -8.0°
Enters shadow 19:45:33 10° 89° (E) 1,383 0.1 -8.5°
